Location: Bli��� Lhota
(48.7570°N, 14.0120°E)
Time: 04:39:18
(UTC+00:00)

Cosmos 1536 Rocket - Pass Details

Date: 18 September 2020
Orbit: 606 x 632 km, 82.5° (Epoch: 29 October)

Event Time Altitude Azimuth Distance (km) Brightness Sun altitude
Rises 18:31:30 0° 353° (N) 2,915 7.4 -14.0°
Reaches altitude 10° 18:33:46 10° 358° (N) 2,008 6.5 -14.4°
Maximum altitude 18:38:10 57° 77° (ENE) 744 3.6 -15.1°
Enters shadow 18:41:16 19° 152° (SSE) 1,518 5.1 -15.6°
